This is the latest recevied weather packets stored in our database for station/object BRIVER. If no packets are shown the sender has not sent any weather packets the latest 10 day(s).
| Time | Temp. | Humidity | Pressure | Rain* | Wind** | Luminosity | Snow |
|---|---|---|---|---|---|---|---|
| 1778178626 | 13.89° C | 69% | 1016.7 hPa | 0 mm | - | - | - |
| 1778178326 | 13.33° C | 70% | 1016.7 hPa | 0 mm | - | - | - |
| 1778178026 | 13.33° C | 68% | 1016.7 hPa | 0 mm | - | - | - |
| 1778177787 | 12.78° C | 69% | 1016.6 hPa | 0 mm | - | - | - |
| 1778177726 | 12.78° C | 72% | 1016.6 hPa | 0 mm | - | - | - |
| 1778177426 | 13.33° C | 70% | 1016.4 hPa | 0 mm | - | - | - |
| 1778177247 | 13.89° C | 68% | 1016.5 hPa | 0 mm | - | - | - |
| 1778177126 | 13.89° C | 69% | 1016.5 hPa | 0 mm | - | - | - |
| 1778176826 | 13.33° C | 70% | 1016.5 hPa | 0 mm | - | - | - |
| 1778176708 | 13.89° C | 66% | 1016.6 hPa | 0 mm | - | - | - |
| 1778176526 | 13.89° C | 69% | 1016.5 hPa | 0 mm | - | - | - |
| 1778176226 | 13.33° C | 76% | 1016.6 hPa | 0 mm | - | - | - |
| 1778176167 | 13.33° C | 75% | 1016.5 hPa | 0 mm | - | - | - |
| 1778175926 | 13.33° C | 71% | 1016.6 hPa | 0 mm | - | - | - |
| 1778175626 | 13.33° C | 71% | 1016.5 hPa | 0 mm | - | - | - |
| 1778175326 | 13.33° C | 70% | 1016.7 hPa | 0 mm | - | - | - |
| 1778175087 | 13.89° C | 77% | 1016.6 hPa | 0 mm | - | - | - |
| 1778175026 | 13.89° C | 80% | 1016.6 hPa | 0 mm | - | - | - |
| 1778174726 | 13.89° C | 81% | 1016.6 hPa | 0 mm | - | - | - |
| 1778174548 | 13.89° C | 83% | 1016.6 hPa | 0 mm | - | - | - |
| 1778174426 | 13.89° C | 83% | 1016.7 hPa | 0 mm | - | - | - |
| 1778174126 | 13.33° C | 81% | 1016.8 hPa | 0 mm | - | - | - |
| 1778174007 | 13.33° C | 86% | 1016.7 hPa | 0 mm | - | - | - |
| 1778173826 | 13.33° C | 85% | 1016.5 hPa | 0 mm | - | - | - |
| 1778173526 | 13.33° C | 83% | 1016.6 hPa | 0 mm | - | - | - |
* Rain latest hour (hover to see other rain measurements)
** Current wind speed in m/s (hover to see current wind gust speed)